www.pogodaiklimat.ru

Погода и климат >> Архив погоды >> Ирак >> Эль-Фао


ПОГОДА в Эль-Фао

  • Прогноз погоды в Эль-Фао
  • Монитор погоды в Эль-Фао

АРХИВ ПОГОДЫ в Эль-Фао

Время (UTC), дата Ветер
(напр.,м/с)
 
Видим.   Явления Облачность Т
(С)
Тd
(С)
f
(%)
Тe
(С)
Тes
(С)
Комфортность P
(гПа)
Po
(гПа)
Тmin
(С)
Tmax
(С)
R
(мм)
R24
(мм)
S
(см)
00 17.02 СЗ 2 10 км ясно +11.2 +6.1 71 +10 +10 1022.6 1022.4
03 17.02 СЗ 2 10 км ясно +10.4 +5.2 70 +9 +9 1022.8 1022.6
06 17.02 СЗ 2 10 км ясно +13.0 +6.4 64 +12 +19 1024.2 1024.0 +8.5
09 17.02 СЗ 3 10 км ясно +18.6 +5.1 41 +19 +29 1023.4 1023.2
12 17.02 СЗ 3 10 км 3/3 1200 м
[Cu hum]
+20.6 +5.3 37 +22 +25 комфорт 1020.8 1020.6
15 17.02 штиль 0 10 км 1/1 1200 м
[Cu hum]
+19.2 +12.1 63 +20 +20 1020.4 1020.2
18 17.02 СЗ 2 10 км ясно +15.8 +7.4 57 +16 +16 1021.6 1021.4 +21.2
09 18.02 СЗ 2 10 км 3/3 1200 м
[Cu hum]
+19.4 +5.2 39 +20 +29 1019.8 1019.6
12 18.02 СЗ 3 10 км 1/1 1200 м
[Cu hum]
+21.0 +2.3 29 +22 +25 комфорт 1016.8 1016.6
15 18.02 С 2 10 км 3/1 1200 м
[Cu hum Ac trans Ci fib]
+18.0 +5.9 45 +19 +19 1016.0 1015.8
18 18.02 СЗ 2 10 км 3/0
[Ac trans Ci fib]
+16.0 +7.2 56 +16 +16 1017.0 1016.8 +21.4
00 19.02 штиль 0 10 км 4/0
[Ci fib]
+13.0 +9.1 77 +13 +13 1015.8 1015.6
03 19.02 штиль 0 10 км 4/0
[Ci fib]
+11.6 +8.4 81 +11 +11 1016.4 1016.2
06 19.02 З 2 10 км 4/0
[Ci sp]
+14.8 +9.0 68 +15 +21 1017.8 1017.6 +10.0
09 19.02 СЗ 4 10 км 8/3 1200 м
[Cu med, cong Ac trans Ci sp]
+17.0 +4.4 43 +17 +21 1018.0 1017.8
12 19.02 СЗ 3 10 км 4/4 1200 м
[Cu med, cong]
+18.5 +3.8 38 +19 +21 1016.8 1016.6
18 19.02 СЗ 2 10 км ясно +14.8 +5.6 54 +15 +15 1020.6 1020.4 +19.1
21 19.02 СЗ 2 10 км ясно +12.6 +6.8 68 +12 +12 1021.0 1020.8
00 20.02 СЗ 3 10 км ясно +11.6 +6.1 69 +10 +10 1021.0 1020.8
06 20.02 З 3 10 км ясно +13.2 +6.1 62 +12 +18 1023.4 1023.2 +8.2
09 20.02 СЗ 3 10 км ясно +19.4 +4.6 38 +20 +31 1022.8 1022.6
12 20.02 СЗ 4 10 км 1/1 1200 м
[Cu hum]
+21.0 +3.6 32 +22 +25 комфорт 1021.6 1021.4
15 20.02 СЗ 2 10 км ясно +19.0 +3.4 35 +20 +20 1021.6 1021.4
21 20.02 штиль 0 10 км ясно +13.8 +7.8 67 +14 +14 1023.4 1023.2
00 21.02 штиль 0 10 км ясно +12.0 +7.5 74 +12 +12 1023.2 1023.0
03 21.02 СЗ 2 10 км ясно +11.6 +6.1 69 +11 +11 1023.8 1023.6
06 21.02 З 2 10 км ясно +15.0 +5.9 54 +15 +22 1025.6 1025.4 +9.6
09 21.02 Ю 2 10 км 1/1 1200 м
[Cu hum Ci fib]
+20.0 +8.2 47 +22 +33 комфорт 800.8
12 21.02 В 2 10 км 1/1 1200 м
[Cu hum]
+21.0 +5.4 36 +22 +27 комфорт 1022.6 1022.4
15 21.02 ЮВ 2 10 км ясно +17.6 +8.3 54 +18 +18 1022.4 1022.2
18 21.02 ЮВ 2 10 км ясно +16.0 +11.6 75 +16 +16 1023.6 1023.4 +21.8
21 21.02 штиль 0 10 км 1/1
[Cb calv Ac cuf]
+14.6 +10.9 78 +14 +14 1023.6 1023.4
00 22.02 штиль 0 10 км 1/0 1200 м
[Ac trans]
+13.0 +10.3 84 +13 +13 1022.2 1022.0
03 22.02 штиль 0 10 км 1/0
[Ac trans Ci fib]
+12.6 +11.1 91 +12 +12 1022.2 1022.0
06 22.02 ЮВ 2 10 км 1/0
[Ac trans Ci fib]
+16.4 +12.4 77 +17 +23 1024.0 1023.8 +10.6
09 22.02 Ю 2 10 км 3/0
[Ac trans Ci fib]
+21.0 +6.5 39 +23 +35 комфорт 1022.2 1022.0
12 22.02 ЮВ 2 10 км 9/9 1050 м
[Cu Sc Ac trans Ci fib]
+19.8 +9.3 51 +22 +22 комфорт 1020.4 1020.2
15 22.02 ЮВ 3 10 км 9/9 1050 м
[Cu Sc Ac trans Ci fib]
+17.8 +10.8 64 +18 +18 1020.2 1020.0
18 22.02 Ю 2 10 км 3/3 1200 м
[Cu hum]
+16.8 +10.9 68 +17 +17 1021.2 1021.0 +21.6
00 23.02 СВ 2 10 км 1/0
[Ci fib]
+14.4 +12.6 89 +14 +14 1020.2 1020.0
03 23.02 С 2 10 км 5/3 1200 м
[Cu hum Ac trans Ci fib]
+13.6 +11.2 85 +13 +13 1020.8 1020.6
06 23.02 СВ 2 10 км 4/3 1200 м
[Cu hum Ac trans]
+16.8 +11.7 72 +17 +22 1021.6 1021.4 +12.6
09 23.02 ЮВ 3 10 км 4/3 1200 м
[Cu hum Ac trans]
+19.8 +9.3 51 +21 +28 комфорт 1020.6 1020.4
12 23.02 ЮВ 3 10 км 1/1 1200 м
[Cu hum]
+20.4 +12.3 60 +23 +27 комфорт 1018.8 1018.6
15 23.02 ЮВ 2 10 км ясно +18.4 +13.5 73 +19 +19 1019.0 1018.8

 

Местоположение метеостанции Эль-Фао (Ирак): широта 29.98 долгота 48.50 высота над уровнем моря 2 м.

В архиве по умолчанию представлена погода в Эль-Фао за последнюю неделю. Архивные данные за месяц целиком и за предыдущие месяцы, начиная с января 2011 года, Вы можете получить, выбрав интересующий диапазон дат из раскрывающегося списка и нажав кнопку "Ввод!".


*Определитесь, кто Вы:
робот инопланетянин человек

Внимание! Время в таблицах - всемирное. Для получения местного времени необходимо прибавить поправку, которая равна 3 ч.

Смотрите также архив погоды в соседних городах и на ближайших метеорологических станциях:

Погода на Бубияне (Кувейт) (26 км)
Погода в Абадане (Иран) (50 км)
Погода Остров Файлака (Кувейт) (61 км)
Погода на Метеостанции Sabriyah (Кувейт) (68 км)
Погода в Абдали (Кувейт) (78 км)
Погода в Аль-Шуаиба (Кувейт) (80 км)
Погода в Кувейт Сити (Кувейт) (84 км)
Погода в Басре аэропорт (Ирак) (92 км)
Погода на Экспериментальной ферме (Кувейт) (94 км)
Погода в Басре (Ирак) (95 км)

Пояснения к столбцам:

Ветер - указаны скорость ветра в м/с - средняя за 10 мин, порывы в срок и между сроками (в фигурных скобках) и направление, откуда дует ветер: С - северный, СВ - северо-восточный, В - восточный, ЮВ - юго-восточный, Ю - южный, ЮЗ - юго-западный, З - западный, СЗ - северо-западный.
Видимость - горизонтальная дальность видимости в метрах или километрах. При видимости от 1 до 10 км при отсутствии осадков обычно наблюдается дымка, при ухудшении видимости до 1 км и менее - туман. В сухую погоду видимость может ухудшаться дымом, пылью или мглою.
Явления - указаны атмосферные явления, наблюдавшиеся в срок или в последний час перед сроком; фигурными скобками обозначены явления, наблюдавшиеся между сроками (за 1-3 часа до срока); квадратными скобками обозначены град или гололедные отложения с указанием их диаметра в мм.
Облачность - указаны через наклонную черту общая и нижняя облачность в баллах и высота нижней границы облаков в метрах; квадратными скобками обозначены формы облаков: Ci - перистые, Cs - перисто-слоистые, Cc - перисто-кучевые, Ac - высококучевые, As - высокослоистые, Sc - слоисто-кучевые, Ns - слоисто-дождевые, Cu - кучевые, Cb - кучево-дождевые. Подробнее классификацию облаков см. в Атласе облаков (PDF).
T - Температура воздуха - температура, измеренная на высоте 2 м над землей.
Td - Температура точки росы - температура, при понижении до которой содержащийся в воздухе водяной пар достигнет насыщения.
f - Относительная влажность воздуха - влажноcть воздуха, измеренная на высоте 2 м над землей.
Te - Эффективная температура - температура, которую ощущает одетый по сезону человек в тени. Характеристика душности погоды. При расчете учитывается влияние влажности воздуха и скорости ветра на теплоощущения человека.
Tes - Эффективная температура на солнце - температура, которую ощущает человек, с поправкой на солнечный нагрев. Характеристика знойности погоды. Зависит от высоты солнца над горизонтом, облачности и скорости ветра. Ночью, в пасмурную погоду, а также при ветре 12 м/с и более поправка равна нулю.
P - Атмосферное давление - приведенное к уровню моря атмосферное давление.
Po - Атмосферное давление - измеренное на уровне метеостанции атмосферное давление.
Tmin - Минимальная температура - минимум температуры воздуха на высоте 2 м над землей.
Tmax - Максимальная температура - максимум температуры воздуха на высоте 2 м над землей.
R - Количество осадков - Количество выпавших осадков за период времени, мм. При наведении курсора мыши на число - период времени, за который выпало указанное количество осадков.
R24 - Количество осадков - Количество выпавших осадков за 24 часа, мм.
S - Снежный покров - Высота снежного покрова, см. При наведении курсора мыши на число - состояние снежного покрова и степень покрытия местности в баллах.